www.pogodaiklimat.ru

Погода и климат >> Архив погоды >> Германия >> Berlin


АРХИВ ПОГОДЫ в Berlin

Время (UTC), дата Ветер
(напр.,м/с)
 
Видим.   Явления Облачность Т
(С)
Тd
(С)
f
(%)
Тe
(С)
Тes
(С)
Комфортность P
(гПа)
Po
(гПа)
Тmin
(С)
Tmax
(С)
R
(мм)
R24
(мм)
S
(см)
16 13.05 В 8-11
{12}
н/о н/о +25.0 +5.9 29 +25 +25 комфорт 1011.2 1005.6
17 13.05 В 8-12
{12}
н/о н/о +24.4 +5.1 29 +24 +24 комфорт 1011.0 1005.4
18 13.05 В 6 н/о н/о +23.4 +5.8 32 +24 +24 комфорт 1011.3 1005.6 +17.4 +26.5
20 13.05 В 4-5
{8}
н/о н/о +19.6 +7.1 44 +20 +20 тепло 1012.2 1006.5
19 13.05 В 5-7
{9}
н/о н/о +22.1 +6.0 35 +23 +23 комфорт 1011.7 1006.0
21 13.05 В 3-5
{9}
н/о н/о +18.1 +7.9 51 +18 +18 тепло 1012.9 1007.1
22 13.05 В 3-4
{5}
н/о н/о +17.0 +8.0 55 +17 +17 тепло 1012.9 1007.1
23 13.05 В 4-5
{6}
н/о н/о +17.0 +8.0 55 +17 +17 тепло 1012.8 1007.0
00 14.05 В 4 н/о н/о +16.5 +8.0 57 +16 +16 тепло 1012.9 1007.1
02 14.05 В 5-6
{7}
н/о н/о +16.2 +7.9 58 +15 +15 тепло 1012.9 1007.1
01 14.05 В 4-6
{6}
н/о н/о +16.3 +7.9 57 +16 +16 тепло 1013.0 1007.2
03 14.05 В 5-6
{7}
н/о н/о +15.1 +8.1 63 +14 +14 тепло 1012.9 1007.1
04 14.05 В 4-6
{6}
н/о н/о +14.8 +8.4 65 +14 +14 тепло 1013.3 1007.5
05 14.05 В 6-9
{9}
н/о н/о +15.8 +8.9 64 +14 +14 тепло 1013.6 1007.8
06 14.05 В 5 н/о н/о +17.3 +9.5 60 +17 +17 тепло 1013.9 1008.1 +14.7 +23.5
08 14.05 В 6-8
{8}
н/о н/о +20.9 +10.9 53 +23 +23 комфорт 1014.2 1008.5
07 14.05 В 5-6
{8}
н/о н/о +19.6 +9.8 53 +20 +20 тепло 1013.9 1008.2
09 14.05 В 6 н/о н/о +23.2 +9.8 43 +25 +25 комфорт 1014.6 1008.9
10 14.05 В 8-13
{13}
н/о н/о +23.1 +6.8 35 +24 +24 комфорт 1014.5 1008.8
11 14.05 В 8-12
{13}
н/о н/о +23.1 +4.1 29 +23 +23 комфорт 1014.6 1008.9
12 14.05 В 7-13
{13}
н/о н/о +23.4 +3.6 27 +23 +23 комфорт 1014.8 1009.1 0.0
14 14.05 В 8-12
{12}
н/о н/о +23.2 +4.9 30 +23 +23 комфорт 1014.5 1008.8
13 14.05 В 7-12
{12}
н/о н/о +23.2 +3.9 28 +23 +23 комфорт 1014.6 1008.9
15 14.05 В 7-13
{13}
н/о н/о +23.0 +3.6 28 +23 +23 комфорт 1014.5 1008.8
16 14.05 В 7-11
{12}
н/о н/о +22.4 +4.9 32 +23 +23 комфорт 1014.4 1008.7
17 14.05 В 7-10
{11}
н/о н/о +21.5 +4.1 32 +22 +22 комфорт 1014.5 1008.8
18 14.05 В 6 н/о н/о +20.7 +4.0 33 +21 +21 комфорт 1014.7 1009.0 +17.3 +24.0 0.0
20 14.05 В 3-4
{6}
н/о н/о +16.1 +5.2 48 +16 +16 тепло 1015.7 1009.9
19 14.05 В 4-6
{8}
н/о н/о +18.6 +4.6 40 +19 +19 тепло 1015.2 1009.4
21 14.05 В 4-7
{8}
н/о н/о +17.0 +5.2 46 +17 +17 тепло 1016.0 1010.2
22 14.05 В 3-4
{5}
н/о н/о +14.8 +5.6 54 +14 +14 тепло 1016.2 1010.3
23 14.05 В 2-3
{4}
н/о н/о +13.3 +5.5 59 +13 +13 тепло 1016.3 1010.4
00 15.05 В 1 н/о н/о +13.2 +5.7 60 +14 +14 тепло 1016.3 1010.4
02 15.05 С 1-2
{2}
н/о н/о +12.2 +6.0 66 +12 +12 тепло 1015.8 1009.9
01 15.05 С 1-2
{2}
н/о н/о +12.2 +5.7 64 +12 +12 тепло 1016.0 1010.1
03 15.05 С 3-4
{4}
н/о н/о +11.7 +5.9 68 +10 +10 по сезону 1015.7 1009.8
04 15.05 СВ 3-3
{5}
н/о н/о +11.7 +6.6 71 +10 +10 тепло 1015.7 1009.8
05 15.05 СВ 2-4
{5}
н/о н/о +14.2 +7.9 66 +14 +14 тепло 1015.6 1009.7
06 15.05 В 4 н/о н/о +16.1 +8.0 59 +15 +15 тепло 1015.5 1009.7 +10.9 +20.7
08 15.05 С 4-6
{6}
н/о н/о +18.7 +8.6 52 +19 +19 тепло 1015.1 1009.3
07 15.05 СВ 3-4
{5}
н/о н/о +17.7 +8.3 54 +18 +18 тепло 1015.3 1009.5
09 15.05 С 6 н/о н/о +21.2 +8.1 43 +22 +22 комфорт 1014.6 1008.9
10 15.05 В 6-8
{11}
н/о н/о +21.9 +7.8 40 +23 +23 комфорт 1014.5 1008.8
11 15.05 СВ 7-10
{12}
н/о н/о +22.5 +8.7 41 +24 +24 комфорт 1014.3 1008.6
12 15.05 СВ 5-9
{12}
н/о н/о +21.7 +8.2 42 +23 +23 комфорт 1013.7 1008.0
14 15.05 ЮВ 4-6
{11}
н/о н/о +19.4 +7.9 47 +20 +20 тепло 1013.2 1007.4
15 15.05 В 7-11
{11}
н/о н/о +15.5 +11.0 75 +14 +14 прохладно 1014.2 1008.4 0.0
16 15.05 СВ 5-8
{17}
н/о н/о +12.7 +11.3 91 +10 +10 прохладно 1014.6 1008.7
17 15.05 СЗ 3-5
{5}
н/о н/о +13.6 +12.2 91 +12 +12 прохладно 1013.4 1007.5
18 15.05 СВ 4 н/о н/о +13.1 +11.9 92 +11 +11 прохладно 1013.2 1007.3 +12.7 +22.9 6
19 15.05 С 3-5
{6}
н/о н/о +12.6 +11.3 92 +11 +11 по сезону 1013.1 1007.2
20 15.05 С 3-4
{4}
н/о н/о +12.0 +10.9 93 +10 +10 по сезону 1013.6 1007.7
21 15.05 С 3-5
{6}
н/о н/о +12.1 +11.1 94 +10 +10 прохладно 1013.4 1007.5
22 15.05 С 3-5
{6}
н/о н/о +12.4 +11.6 95 +11 +11 тепло 1013.3 1007.4
23 15.05 С 2-4
{5}
н/о н/о +11.6 +10.7 94 +10 +10 по сезону 1013.1 1007.2
00 16.05 С 1 н/о н/о +11.6 +10.9 95 +11 +11 по сезону 1012.8 1006.9
01 16.05 С 2-2
{5}
н/о н/о +11.7 +11.1 96 +10 +10 тепло 1012.8 1006.9
02 16.05 С 2-3
{3}
н/о н/о +11.3 +10.8 97 +10 +10 по сезону 1012.7 1006.8
03 16.05 С 2-3
{5}
н/о н/о +11.8 +11.4 97 +11 +11 по сезону 1012.7 1006.8
04 16.05 С 2-3
{3}
н/о н/о +11.6 +11.1 97 +10 +10 по сезону 1012.6 1006.7
05 16.05 С 2-3
{3}
н/о н/о +12.6 +12.1 97 +12 +12 тепло 1012.7 1006.8
06 16.05 С 3 н/о н/о +13.3 +11.8 91 +12 +12 по сезону 1012.8 1006.9 +11.2 +13.5
07 16.05 С 2-3
{4}
н/о н/о +14.3 +12.3 88 +14 +14 тепло 1012.6 1006.8
08 16.05 С 2-4
{4}
н/о н/о +16.8 +12.0 73 +17 +17 тепло 1012.5 1006.7
09 16.05 С 4 н/о н/о +18.4 +11.7 65 +19 +19 тепло 1012.6 1006.8
10 16.05 СВ 4-6
{7}
н/о н/о +18.7 +11.2 62 +19 +19 тепло 1012.7 1006.9
11 16.05 С 5-7
{7}
н/о н/о +19.8 +10.3 54 +21 +21 комфорт 1012.5 1006.8
12 16.05 С 4-7
{7}
н/о н/о +21.3 +11.1 52 +23 +23 комфорт 1012.0 1006.3
13 16.05 С 5-7
{10}
н/о н/о +20.9 +8.9 46 +22 +22 комфорт 1011.7 1006.0
14 16.05 С 5-8
{12}
н/о н/о +22.0 +8.8 43 +23 +23 комфорт 1011.5 1005.8
15 16.05 С 6-11
{12}
н/о н/о +20.6 +10.5 52 +22 +22 комфорт 1011.3 1005.6
16 16.05 С 6-8
{10}
н/о н/о +20.3 +10.9 55 +22 +22 комфорт 1011.3 1005.6
17 16.05 С 6-8
{8}
н/о н/о +20.1 +11.8 59 +22 +22 комфорт 1011.3 1005.6
18 16.05 С 4 н/о н/о +19.3 +12.2 63 +20 +20 тепло 1011.0 1005.3 +13.2 +22.6
19 16.05 С 3-5
{6}
н/о н/о +18.3 +12.3 68 +19 +19 тепло 1011.5 1005.7
20 16.05 С 4-5
{5}
н/о н/о +18.1 +12.0 68 +18 +18 тепло 1011.9 1006.1
21 16.05 С 3-4
{6}
н/о н/о +16.9 +12.2 74 +17 +17 тепло 1012.0 1006.2 0.0
22 16.05 С 3-4
{4}
н/о н/о +16.1 +12.0 77 +16 +16 тепло 1012.0 1006.2
23 16.05 С 3-4
{5}
н/о н/о +15.7 +11.6 77 +15 +15 тепло 1011.8 1006.0
00 17.05 СЗ 3 н/о н/о +14.8 +10.6 76 +14 +14 тепло 1011.4 1005.6
01 17.05 СЗ 3-4
{4}
н/о н/о +13.9 +11.2 84 +13 +13 тепло 1011.4 1005.6
02 17.05 С 3-4
{4}
н/о н/о +13.5 +10.7 83 +12 +12 тепло 1011.3 1005.4
03 17.05 СЗ 3-4
{4}
н/о н/о +12.8 +10.7 87 +11 +11 по сезону 1011.5 1005.6
04 17.05 СЗ 4-5
{5}
н/о н/о +12.4 +10.6 89 +10 +10 по сезону 1011.7 1005.8
05 17.05 СЗ 3-5
{5}
н/о н/о +13.1 +10.2 83 +12 +12 тепло 1012.0 1006.1
06 17.05 СЗ 4 н/о н/о +14.7 +10.5 76 +14 +14 тепло 1012.2 1006.4 +12.2 +19.3 0.0
08 17.05 СЗ 5-7
{8}
н/о н/о +16.9 +11.5 70 +16 +16 тепло 1013.0 1007.2
09 17.05 СЗ 5 н/о н/о +18.8 +12.2 65 +19 +19 тепло 1013.1 1007.3
11 17.05 СЗ 7-10
{11}
н/о н/о +19.2 +12.1 63 +20 +20 тепло 1013.6 1007.8
10 17.05 З 6-9
{10}
н/о н/о +18.9 +12.3 66 +19 +19 тепло 1013.5 1007.7
12 17.05 СЗ 6-9
{11}
н/о н/о +19.9 +12.6 63 +21 +21 комфорт 1013.7 1008.0
13 17.05 СЗ 7-10
{11}
н/о н/о +21.0 +11.7 55 +23 +23 комфорт 1013.5 1007.8
14 17.05 З 7-10
{10}
н/о н/о +21.6 +11.4 52 +24 +24 комфорт 1013.3 1007.6
15 17.05 СЗ 6-9
{11}
н/о н/о +20.6 +11.0 54 +22 +22 комфорт 1013.3 1007.6
17 17.05 СЗ 8-11
{11}
н/о н/о +21.1 +9.9 49 +23 +23 комфорт 1013.4 1007.7
16 17.05 СЗ 7-10
{10}
н/о н/о +21.3 +11.1 52 +23 +23 комфорт 1013.2 1007.5
18 17.05 СЗ 7 н/о н/о +19.7 +10.2 54 +20 +20 тепло 1013.7 1008.0 +14.7 +21.7
19 17.05 СЗ 7-11
{12}
н/о н/о +18.1 +9.4 57 +17 +17 тепло 1014.4 1008.6
20 17.05 СЗ 7-10
{12}
н/о н/о +17.2 +9.0 59 +16 +16 тепло 1015.3 1009.5
21 17.05 СЗ 9-12
{12}
н/о н/о +15.3 +8.4 63 +13 +13 по сезону 1015.8 1010.0
23 17.05 СЗ 6-9
{10}
н/о н/о +12.0 +8.2 78 +9 +9 тепло 1016.7 1010.8
22 17.05 СЗ 7-10
{12}
н/о н/о +13.5 +8.6 72 +11 +11 тепло 1016.4 1010.5
00 18.05 СЗ 6 н/о н/о +11.2 +7.8 80 +8 +8 по сезону 1016.8 1010.9
01 18.05 СЗ 5-9
{10}
н/о н/о +10.7 +7.6 81 +8 +8 по сезону 1017.2 1011.2
02 18.05 СЗ 4-6
{9}
н/о н/о +10.1 +7.5 84 +7 +7 по сезону 1017.3 1011.3
03 18.05 СЗ 4-6
{10}
н/о н/о +9.6 +7.3 86 +7 +7 прохладно 1017.5 1011.5
05 18.05 З 5-7
{7}
н/о н/о +10.6 +7.7 82 +8 +8 по сезону 1018.0 1012.0
04 18.05 З 4-6
{6}
н/о н/о +9.9 +7.4 84 +7 +7 прохладно 1017.8 1011.8
06 18.05 З 4 н/о н/о +11.5 +7.9 79 +9 +9 прохладно 1018.4 1012.5 +9.5 +19.7
07 18.05 З 5-7
{8}
н/о н/о +12.3 +8.3 77 +10 +10 прохладно 1018.7 1012.8
08 18.05 З 5-7
{8}
н/о н/о +13.0 +8.3 73 +11 +11 прохладно 1018.7 1012.8
09 18.05 З 4 н/о н/о +14.2 +8.8 70 +13 +13 по сезону 1019.1 1013.2
11 18.05 З 4-7
{7}
н/о н/о +14.7 +8.9 68 +14 +14 прохладно 1019.7 1013.8
10 18.05 З 5-6
{7}
н/о н/о +14.2 +8.5 69 +13 +13 прохладно 1019.5 1013.6
12 18.05 СЗ 4-6
{8}
н/о н/о +14.6 +9.2 70 +13 +13 холодно 1019.8 1013.9 0.0
13 18.05 СЗ 4-6
{7}
н/о н/о +14.7 +8.8 68 +14 +14 по сезону 1019.9 1014.0
14 18.05 З 3-5
{6}
н/о н/о +14.7 +8.8 68 +14 +14 прохладно 1019.9 1014.0
15 18.05 З 3-5
{7}
н/о н/о +14.6 +9.0 69 +14 +14 прохладно 1019.9 1014.0
17 18.05 З 4-6
{7}
н/о н/о +13.5 +9.5 77 +12 +12 прохладно 1020.0 1014.1
16 18.05 З 4-5
{6}
н/о н/о +14.2 +9.1 71 +13 +13 по сезону 1019.8 1013.9
18 18.05 З 3 н/о н/о +13.4 +9.5 77 +12 +12 прохладно 1020.2 1014.3 +11.4 +15.0
19 18.05 З 3-4
{5}
н/о н/о +13.2 +9.6 79 +12 +12 по сезону 1020.5 1014.6
20 18.05 З 3-5
{5}
н/о н/о +12.7 +9.9 83 +11 +11 по сезону 1020.8 1014.9
21 18.05 З 3-5
{5}
н/о н/о +12.6 +10.2 85 +11 +11 по сезону 1021.0 1015.1
23 18.05 З 2-3
{4}
н/о н/о +12.6 +10.4 86 +12 +12 тепло 1021.2 1015.3
22 18.05 З 3-3
{5}
н/о н/о +12.5 +10.4 87 +11 +11 тепло 1021.0 1015.1
00 19.05 З 3 н/о н/о +12.5 +10.5 88 +11 +11 по сезону 1021.1 1015.2 0.0
01 19.05 З 3-4
{4}
н/о н/о +12.1 +10.3 89 +10 +10 тепло 1021.0 1015.1
02 19.05 СЗ 2-3
{4}
н/о н/о +12.2 +10.5 89 +11 +11 по сезону 1021.1 1015.2
03 19.05 СЗ 1-2
{4}
н/о н/о +12.2 +10.2 88 +12 +12 по сезону 1020.9 1015.0
04 19.05 С 2-2
{3}
н/о н/о +12.3 +10.3 88 +11 +11 по сезону 1021.2 1015.3
06 19.05 СВ 2 н/о н/о +13.1 +9.7 80 +12 +12 по сезону 1022.0 1016.1 +12.0 +13.4 0.0
07 19.05 СВ 2-3
{4}
н/о н/о +14.4 +8.9 70 +14 +14 по сезону 1022.4 1016.5
08 19.05 В 2-5
{5}
н/о н/о +15.9 +6.5 54 +16 +16 тепло 1022.7 1016.8
09 19.05 В 4 н/о н/о +17.2 +0.7 33 +17 +17 тепло 1022.8 1016.9
10 19.05 В 4-6
{7}
н/о н/о +17.8 -0.4 29 +18 +18 по сезону 1022.8 1016.9
11 19.05 ЮВ 5-8
{9}
н/о н/о +20.0 -0.4 25 +20 +20 тепло 1022.5 1016.7
12 19.05 В 4-8
{9}
н/о н/о +21.0 +1.1 27 +21 +21 комфорт 1022.3 1016.5
13 19.05 В 3-6
{9}
н/о н/о +20.8 +2.2 29 +21 +21 комфорт 1022.2 1016.4
14 19.05 В 4-7
{9}
н/о н/о +21.7 +4.8 33 +22 +22 комфорт 1022.0 1016.2
15 19.05 СВ 4-7
{9}
н/о н/о +21.2 +5.3 35 +22 +22 комфорт 1021.7 1015.9
16 19.05 СВ 4-7
{8}
н/о н/о +21.1 +6.9 40 +22 +22 комфорт 1021.6 1015.8
17 19.05 СВ 6-8
{9}
н/о н/о +20.3 +6.0 39 +21 +21 комфорт 1021.5 1015.7
18 19.05 В 5 н/о н/о +19.1 +5.4 41 +19 +19 тепло 1021.8 1016.0 +13.0 +22.0
19 19.05 В 4-6
{6}
н/о н/о +17.4 +4.9 44 +17 +17 тепло 1022.4 1016.6
20 19.05 СВ 5-7
{7}
н/о н/о +16.4 +4.0 44 +16 +16 тепло 1023.3 1017.4
21 19.05 СВ 4-6
{8}
н/о н/о +14.9 +3.8 47 +14 +14 по сезону 1023.8 1017.9
22 19.05 СВ 4-6
{7}
н/о н/о +14.1 +3.6 49 +13 +13 тепло 1024.1 1018.2
23 19.05 СВ 4-6
{8}
н/о н/о +12.8 +2.3 49 +11 +11 тепло 1024.7 1018.7
00 20.05 СВ 4 н/о н/о +11.6 +1.9 51 +10 +10 по сезону 1024.8 1018.8
01 20.05 СВ 3-5
{5}
н/о н/о +10.0 +2.1 58 +8 +8 по сезону 1024.7 1018.7
02 20.05 СВ 3-4
{5}
н/о н/о +8.8 +2.4 64 +7 +7 по сезону 1024.8 1018.8
03 20.05 СВ 4-5
{5}
н/о н/о +8.3 +2.8 68 +5 +5 холодно 1024.9 1018.8
04 20.05 СВ 3-5
{6}
н/о н/о +8.8 +3.3 68 +7 +7 по сезону 1025.2 1019.2
05 20.05 В 4-5
{6}
н/о н/о +10.3 +3.7 64 +8 +8 прохладно 1025.5 1019.5
06 20.05 В 3 н/о н/о +12.3 +4.1 57 +11 +11 по сезону 1026.1 1020.1 +8.0 +19.1
07 20.05 В 4-6
{6}
н/о н/о +15.0 +4.8 50 +14 +14 по сезону 1026.2 1020.3
08 20.05 В 4-6
{7}
н/о н/о +16.9 +5.2 46 +16 +16 тепло 1026.3 1020.4
09 20.05 В 5 н/о н/о +18.7 +4.6 39 +19 +19 тепло 1026.2 1020.4
10 20.05 В 5-8
{8}
н/о н/о +20.2 +4.3 35 +21 +21 комфорт 1026.1 1020.3
11 20.05 В 6-8
{10}
н/о н/о +20.6 +2.8 31 +21 +21 комфорт 1026.0 1020.2
12 20.05 В 5-9
{10}
н/о н/о +20.8 +1.3 27 +21 +21 комфорт 1025.5 1019.7
13 20.05 В 4-8
{9}
н/о н/о +21.6 +2.3 28 +21 +21 комфорт 1025.2 1019.4
14 20.05 В 5-8
{10}
н/о н/о +21.7 -0.6 23 +21 +21 комфорт 1025.0 1019.2

 

Местоположение метеостанции Berlin (Германия): широта 52.47 долгота 13.40 высота над уровнем моря 50 м.

В архиве по умолчанию представлена погода в Berlin за последнюю неделю. Архивные данные за месяц целиком и за предыдущие месяцы, начиная с января 2011 года, Вы можете получить, выбрав интересующий диапазон дат из раскрывающегося списка и нажав кнопку "Ввод!".


*Определитесь, кто Вы:
робот инопланетянин человек

Внимание! Время в таблицах - всемирное. Для получения местного времени необходимо прибавить поправку, которая в Berlin равна 1 ч.

Смотрите также архив погоды в соседних городах и на ближайших метеорологических станциях:

Погода в Berlin-Dahlem (Германия) (7 км)
Погода в Berlin-Tegel (Германия) (12 км)
Погода в Berlin-Schonefeld (Германия) (13 км)
Погода в Potsdam (Германия) (25 км)
Погода в Baruth (Германия) (42 км)
Погода в Lindenberg (Германия) (56 км)
Погода в Neuruppin (Германия) (62 км)
Погода в Angermuende (Германия) (74 км)
Погода в Wiesenburg (Германия) (74 км)
Погода в Manschnow (Германия) (78 км)

Пояснения к столбцам:

Ветер - указаны скорость ветра в м/с - средняя за 10 мин, порывы в срок и между сроками (в фигурных скобках) и направление, откуда дует ветер: С - северный, СВ - северо-восточный, В - восточный, ЮВ - юго-восточный, Ю - южный, ЮЗ - юго-западный, З - западный, СЗ - северо-западный.
Видимость - горизонтальная дальность видимости в метрах или километрах. При видимости от 1 до 10 км при отсутствии осадков обычно наблюдается дымка, при ухудшении видимости до 1 км и менее - туман. В сухую погоду видимость может ухудшаться дымом, пылью или мглою.
Явления - указаны атмосферные явления, наблюдавшиеся в срок или в последний час перед сроком; фигурными скобками обозначены явления, наблюдавшиеся между сроками (за 1-3 часа до срока); квадратными скобками обозначены град или гололедные отложения с указанием их диаметра в мм.
Облачность - указаны через наклонную черту общая и нижняя облачность в баллах и высота нижней границы облаков в метрах; квадратными скобками обозначены формы облаков: Ci - перистые, Cs - перисто-слоистые, Cc - перисто-кучевые, Ac - высококучевые, As - высокослоистые, Sc - слоисто-кучевые, Ns - слоисто-дождевые, Cu - кучевые, Cb - кучево-дождевые. Подробнее классификацию облаков см. в Атласе облаков (PDF).
T - Температура воздуха - температура, измеренная на высоте 2 м над землей.
Td - Температура точки росы - температура, при понижении до которой содержащийся в воздухе водяной пар достигнет насыщения.
f - Относительная влажность воздуха - влажноcть воздуха, измеренная на высоте 2 м над землей.
Te - Эффективная температура - температура, которую ощущает одетый по сезону человек в тени. Характеристика душности погоды. При расчете учитывается влияние влажности воздуха и скорости ветра на теплоощущения человека.
Tes - Эффективная температура на солнце - температура, которую ощущает человек, с поправкой на солнечный нагрев. Характеристика знойности погоды. Зависит от высоты солнца над горизонтом, облачности и скорости ветра. Ночью, в пасмурную погоду, а также при ветре 12 м/с и более поправка равна нулю.
P - Атмосферное давление - приведенное к уровню моря атмосферное давление.
Po - Атмосферное давление - измеренное на уровне метеостанции атмосферное давление.
Tmin - Минимальная температура - минимум температуры воздуха на высоте 2 м над землей.
Tmax - Максимальная температура - максимум температуры воздуха на высоте 2 м над землей.
R - Количество осадков - Количество выпавших осадков за период времени, мм. При наведении курсора мыши на число - период времени, за который выпало указанное количество осадков.
R24 - Количество осадков - Количество выпавших осадков за 24 часа, мм.
S - Снежный покров - Высота снежного покрова, см. При наведении курсора мыши на число - состояние снежного покрова и степень покрытия местности в баллах.